Temp
79 79 75 77 78 77 77 76 76 76 76 77 77 77 77 77 77 77 77 77 77 77 78 77 77 76 76 75 75 74 74 74 74 75 75 76 76 76 75 74 75 79 75
81 80 74 76 77 76 76 76 76 76 77 77 77 77 77 76 77 77 77 77 77 77 77 77 76 76 75 74 74 73 73 72 72 73 75 75 75 75 75 74 74 77 75
81 82 80 75 76 76 76 75 76 76 77 77 76 76 76 77 77 77 76 76 76 77 77 77 75 75 74 74 73 73 72 72 72 73 75 81 78 74 74 73 73 74 74
82 82 81 73 75 75 75 75 76 76 77 76 77 76 76 77 77 76 76 76 76 76 77 76 75 74 74 73 73 72 72 71 71 73 80 81 78 74 74 73 73 73 74
81 82 78 73 75 75 75 75 75 75 76 76 76 77 77 77 76 75 75 75 76 75 76 76 75 74 73 73 72 72 71 71 71 76 79 79 80 76 74 73 73 72 71
81 81 74 73 74 75 75 75 75 75 75 76 76 76 76 75 76 75 75 74 74 74 75 75 74 73 72 72 71 71 70 71 73 79 78 77 77 74 73 72 72 71 71
80 81 79 72 73 74 74 75 75 75 75 75 75 75 75 75 75 74 74 74 74 74 73 73 72 72 72 71 71 70 69 69 77 77 77 77 75 73 73 72 71 71 71
80 79 78 69 70 72 73 73 74 74 74 74 75 74 74 74 74 73 73 73 73 73 73 72 72 71 71 70 69 68 67 67 76 76 76 76 72 72 72 71 71 71 70
79 79 78 78 73 68 69 70 71 72 73 73 73 72 71 71 72 72 72 72 73 72 71 71 70 70 70 69 68 66 65 66 77 76 77 76 70 72 72 71 70 70 70
75 77 78 78 79 78 76 66 67 68 69 68 69 67 67 67 68 68 68 70 71 71 70 70 69 69 68 67 66 65 64 67 77 76 76 73 71 72 72 71 70 70 70
70 72 77 77 78 77 77 71 66 65 65 65 66 64 68 76 76 74 66 68 69 69 69 68 68 66 65 64 64 64 66 77 77 76 77 66 69 72 73 72 71 71 70
67 72 75 76 77 76 76 76 76 74 76 75 75 75 75 75 74 73 65 63 64 65 67 67 66 65 69 76 76 69 77 76 76 76 75 65 68 71 72 72 72 72 72
71 72 70 74 76 76 75 76 76 76 75 74 74 74 73 74 74 75 74 74 74 65 75 73 74 75 73 75 75 76 75 76 77 76 70 63 66 69 71 71 72 72 72
72 70 70 71 73 76 76 76 76 75 74 75 74 73 73 73 72 73 74 73 73 75 73 74 74 73 73 72 72 73 73 75 76 76 71 60 63 67 69 70 71 70 71
71 69 70 70 71 74 74 76 76 75 75 75 74 73 75 74 72 73 73 74 74 75 75 74 74 74 73 72 73 72 72 72 73 74 74 58 61 65 68 69 70 70 70
70 67 67 70 71 70 69 73 75 75 75 75 75 74 73 75 73 73 73 73 74 75 75 75 75 74 74 72 72 72 72 73 72 72 73 71 60 62 66 67 67 68 69
72 73 70 70 69 69 69 69 74 74 74 74 74 73 73 73 73 73 73 73 73 73 73 74 74 73 74 73 72 72 72 72 71 71 71 71 70 59 62 64 65 66 67
75 74 72 72 71 70 71 71 74 74 74 74 75 74 72 72 73 73 73 73 73 72 73 74 74 73 73 73 73 73 73 72 70 70 70 70 70 70 64 61 61 62 64
75 73 72 72 72 71 73 73 74 74 74 75 75 75 73 71 69 72 72 73 72 71 66 67 70 67 68 71 71 72 72 71 69 70 68 68 67 68 68 61 58 57 61
75 74 74 73 73 72 72 73 73 73 73 75 75 75 74 70 67 68 73 73 70 67 65 66 64 69 66 68 69 70 70 70 70 68 67 68 67 66 66 64 64 61 57
74 74 74 73 74 73 71 68 69 68 70 72 73 70 68 67 68 67 67 69 70 69 68 68 65 63 63 68 67 70 68 68 68 68 68 68 66 65 63 63 61 61 61
73 73 74 74 74 73 72 72 72 71 72 73 72 67 67 67 67 66 66 66 69 66 65 64 62 61 62 65 65 64 62 64 67 66 66 65 64 64 62 60 59 57 56
72 72 73 74 75 74 73 73 72 72 71 68 66 67 66 67 66 67 67 67 66 66 65 62 62 61 60 60 64 64 60 59 60 64 62 62 62 62 61 59 56 55 54
72 73 74 74 75 74 74 71 69 68 67 70 69 67 68 70 67 69 66 66 67 69 64 62 61 62 61 58 61 62 62 60 57 56 60 60 61 59 58 57 55 53 53
71 71 72 73 73 74 73 72 70 69 72 75 73 69 68 65 66 67 67 66 65 64 62 60 59 60 61 61 62 59 56 58 58 57 54 57 60 59 57 55 53 52 52
71 69 70 71 72 73 73 71 71 70 70 69 69 67 63 62 63 66 65 64 61 59 58 58 58 58 59 61 60 58 57 56 54 54 51 53 51 55 55 53 52 50 50
MSLP
1021.10 1021.41 1021.62 1021.69 1021.75 1021.93 1022.08 1022.08 1021.96 1021.85 1021.83 1021.78 1022.01 1022.06 1022.08 1021.99 1021.91 1021.89 1021.90 1021.92 1021.91 1021.95 1021.99 1022.07 1022.04 1022.07 1022.03 1022.04 1022.04 1022.01 1021.97 1021.91 1021.84 1021.78 1021.75 1021.68 1021.65 1021.67 1021.67 1021.54 1021.28 1021.13 1021.26
1020.91 1021.44 1022.00 1022.12 1022.13 1022.23 1022.38 1022.40 1022.35 1022.21 1022.13 1022.11 1022.30 1022.33 1022.43 1022.39 1022.32 1022.32 1022.39 1022.38 1022.39 1022.44 1022.48 1022.52 1022.60 1022.60 1022.62 1022.61 1022.56 1022.56 1022.49 1022.47 1022.41 1022.26 1022.00 1021.99 1022.13 1022.13 1022.17 1022.08 1021.82 1021.71 1021.70
1020.93 1021.46 1021.99 1022.42 1022.55 1022.65 1022.71 1022.61 1022.60 1022.56 1022.44 1022.52 1022.61 1022.77 1022.82 1022.75 1022.80 1022.72 1022.87 1022.80 1022.89 1022.81 1022.90 1023.02 1023.13 1023.11 1023.13 1023.11 1023.07 1023.08 1023.08 1023.04 1022.88 1022.65 1022.18 1021.93 1022.44 1022.64 1022.60 1022.59 1022.43 1022.24 1022.15
1021.13 1021.44 1021.97 1022.61 1022.69 1022.76 1022.79 1022.85 1022.82 1022.79 1022.91 1022.99 1023.00 1023.07 1023.12 1023.09 1023.13 1023.21 1023.26 1023.34 1023.44 1023.35 1023.36 1023.51 1023.63 1023.65 1023.67 1023.65 1023.64 1023.62 1023.60 1023.51 1023.32 1022.90 1022.39 1022.38 1022.59 1023.01 1023.00 1023.02 1022.94 1022.85 1022.59
1021.35 1021.64 1022.44 1022.77 1022.89 1022.98 1023.09 1023.17 1023.16 1023.19 1023.28 1023.36 1023.31 1023.31 1023.38 1023.50 1023.65 1023.67 1023.74 1023.82 1023.90 1023.91 1023.91 1023.94 1024.10 1024.13 1024.13 1024.09 1024.15 1024.16 1024.13 1024.05 1023.73 1023.20 1023.18 1022.99 1022.91 1023.40 1023.41 1023.46 1023.38 1023.29 1023.18
1021.68 1021.92 1022.82 1022.95 1023.04 1023.20 1023.32 1023.36 1023.41 1023.50 1023.64 1023.63 1023.63 1023.74 1023.83 1024.05 1024.13 1024.11 1024.21 1024.27 1024.39 1024.38 1024.39 1024.53 1024.60 1024.57 1024.56 1024.59 1024.61 1024.63 1024.54 1024.21 1023.71 1023.56 1023.53 1023.70 1023.72 1023.99 1023.97 1023.99 1023.94 1023.88 1023.72
1021.88 1022.17 1022.80 1023.28 1023.37 1023.55 1023.63 1023.58 1023.58 1023.78 1023.85 1023.90 1024.08 1024.15 1024.17 1024.38 1024.56 1024.65 1024.67 1024.68 1024.79 1024.93 1024.98 1025.01 1025.04 1025.04 1025.03 1025.04 1025.02 1024.98 1024.96 1024.69 1024.07 1024.03 1024.00 1023.99 1024.30 1024.39 1024.36 1024.35 1024.30 1024.19 1024.05
1022.02 1022.46 1022.97 1023.66 1023.68 1023.75 1023.96 1023.99 1023.94 1024.00 1024.12 1024.28 1024.29 1024.33 1024.51 1024.77 1024.96 1025.10 1025.15 1025.14 1025.25 1025.36 1025.42 1025.41 1025.42 1025.40 1025.47 1025.51 1025.51 1025.47 1025.35 1025.00 1024.55 1024.62 1024.57 1024.65 1024.92 1024.76 1024.72 1024.67 1024.57 1024.47 1024.38
1022.37 1022.52 1022.96 1023.50 1023.91 1024.20 1024.46 1024.54 1024.61 1024.53 1024.52 1024.68 1024.77 1024.89 1025.07 1025.27 1025.37 1025.57 1025.67 1025.63 1025.66 1025.78 1025.86 1025.88 1025.87 1025.82 1025.79 1025.77 1025.78 1025.74 1025.67 1025.35 1024.74 1024.89 1024.71 1024.80 1025.11 1024.93 1024.86 1024.81 1024.74 1024.63 1024.51
1022.77 1022.80 1022.94 1023.47 1023.72 1024.02 1024.56 1025.01 1025.12 1025.04 1025.12 1025.10 1025.19 1025.41 1025.62 1025.81 1025.90 1026.00 1026.04 1026.11 1026.17 1026.25 1026.25 1026.29 1026.25 1026.23 1026.21 1026.19 1026.13 1026.07 1025.87 1025.51 1025.06 1024.98 1024.95 1025.28 1025.20 1024.94 1024.87 1024.85 1024.76 1024.66 1024.50
1023.21 1023.28 1023.10 1023.49 1023.84 1024.23 1024.45 1025.17 1025.37 1025.57 1025.57 1025.68 1025.67 1025.81 1025.75 1025.68 1025.91 1025.91 1026.39 1026.48 1026.45 1026.45 1026.55 1026.63 1026.61 1026.60 1026.53 1026.43 1026.34 1026.17 1025.76 1025.36 1025.22 1025.23 1025.26 1025.96 1025.62 1025.15 1024.83 1024.74 1024.66 1024.51 1024.31
1023.12 1023.18 1023.26 1023.46 1023.80 1024.30 1024.71 1024.99 1025.13 1025.57 1025.42 1025.60 1025.69 1025.76 1025.83 1026.01 1026.19 1026.28 1026.73 1026.86 1026.85 1026.84 1026.80 1026.81 1026.82 1026.71 1026.30 1025.97 1025.99 1026.10 1025.73 1025.76 1025.57 1025.59 1025.67 1026.15 1025.84 1025.51 1025.19 1024.90 1024.63 1024.32 1024.06
1022.86 1023.16 1023.65 1023.50 1023.75 1024.07 1024.53 1024.86 1025.14 1025.38 1025.53 1025.70 1025.89 1026.01 1026.22 1026.27 1026.45 1026.45 1026.60 1026.58 1026.65 1026.94 1026.53 1026.60 1026.48 1026.38 1026.41 1026.16 1026.09 1025.98 1025.99 1025.88 1025.74 1025.71 1025.99 1026.30 1026.02 1025.64 1025.30 1025.02 1024.69 1024.43 1024.20
1022.48 1023.09 1023.44 1023.78 1023.80 1024.03 1024.26 1024.59 1024.93 1025.28 1025.62 1025.76 1025.96 1026.19 1026.24 1026.22 1026.43 1026.44 1026.41 1026.56 1026.58 1026.63 1026.68 1026.65 1026.59 1026.66 1026.50 1026.47 1026.39 1026.19 1026.10 1025.92 1025.78 1025.73 1025.83 1026.40 1026.33 1025.98 1025.61 1025.21 1024.90 1024.68 1024.38
1022.50 1023.09 1023.32 1023.66 1023.90 1024.14 1024.36 1024.32 1024.58 1024.88 1025.24 1025.45 1025.85 1026.13 1026.14 1026.25 1026.44 1026.56 1026.62 1026.61 1026.64 1026.73 1026.64 1026.60 1026.58 1026.54 1026.47 1026.45 1026.37 1026.28 1026.15 1026.10 1026.02 1025.93 1025.87 1026.49 1026.44 1026.18 1025.75 1025.42 1025.16 1025.04 1024.82
1022.41 1023.16 1023.54 1023.62 1023.91 1024.29 1024.76 1024.65 1024.70 1024.92 1025.15 1025.41 1025.62 1025.81 1026.08 1026.17 1026.36 1026.39 1026.50 1026.60 1026.71 1026.73 1026.74 1026.64 1026.55 1026.47 1026.43 1026.49 1026.32 1026.38 1026.26 1026.12 1026.09 1026.09 1026.06 1026.29 1026.77 1026.64 1026.30 1026.03 1025.80 1025.43 1025.15
1021.81 1022.33 1023.12 1023.58 1024.06 1024.42 1024.64 1024.90 1024.83 1024.98 1025.17 1025.26 1025.47 1025.78 1025.90 1026.05 1026.17 1026.23 1026.30 1026.39 1026.48 1026.68 1026.74 1026.69 1026.63 1026.57 1026.34 1026.38 1026.23 1026.26 1026.19 1026.18 1026.19 1026.22 1026.17 1026.21 1026.25 1026.73 1026.69 1026.55 1026.34 1025.96 1025.57
1021.19 1021.71 1022.45 1022.90 1023.41 1024.06 1024.44 1024.60 1024.45 1024.69 1024.99 1025.12 1025.31 1025.54 1025.86 1026.02 1026.14 1026.23 1026.22 1026.25 1026.39 1026.48 1026.43 1026.39 1026.36 1026.25 1026.29 1026.15 1026.08 1025.87 1025.86 1026.04 1026.26 1026.29 1026.39 1026.34 1026.49 1026.46 1026.65 1027.13 1027.02 1026.67 1026.31
1020.54 1021.27 1021.78 1022.43 1022.76 1023.17 1023.63 1024.00 1024.16 1024.45 1024.73 1024.96 1025.10 1025.27 1025.57 1025.87 1026.13 1026.02 1026.09 1026.11 1026.29 1026.31 1026.69 1026.70 1026.49 1026.83 1026.52 1026.26 1026.25 1025.91 1025.85 1026.10 1026.42 1026.45 1026.69 1026.86 1026.99 1027.03 1026.93 1027.21 1027.45 1027.51 1027.04
1020.10 1020.65 1021.15 1021.82 1022.27 1022.66 1023.12 1023.56 1023.84 1024.08 1024.28 1024.44 1024.64 1024.84 1025.10 1025.59 1025.95 1026.10 1025.77 1025.91 1026.31 1026.48 1026.58 1026.58 1026.66 1026.43 1026.76 1026.55 1026.39 1026.17 1026.18 1026.33 1026.51 1026.66 1026.94 1027.14 1027.33 1027.17 1027.27 1027.45 1027.46 1027.75 1027.94
1019.52 1020.01 1020.38 1020.91 1021.37 1022.03 1022.53 1023.02 1023.35 1023.40 1023.63 1023.81 1024.09 1024.54 1025.01 1025.26 1025.46 1025.72 1025.85 1025.91 1026.01 1026.03 1026.21 1026.23 1026.64 1026.62 1026.74 1026.68 1026.36 1026.10 1026.42 1026.68 1026.72 1026.80 1026.89 1027.05 1027.52 1027.70 1027.77 1027.80 1027.85 1027.85 1027.95
1018.90 1019.17 1019.63 1020.18 1020.64 1021.29 1021.64 1021.90 1022.20 1022.58 1022.83 1022.87 1023.29 1023.98 1024.23 1024.54 1024.82 1025.09 1025.28 1025.54 1025.54 1025.86 1026.20 1026.38 1026.57 1026.64 1026.68 1026.75 1026.41 1026.46 1026.07 1026.42 1026.60 1026.87 1027.22 1027.35 1027.54 1027.78 1027.95 1028.26 1028.51 1028.65 1028.70
1018.09 1018.36 1018.71 1019.22 1019.75 1020.38 1020.88 1021.30 1021.80 1022.02 1022.41 1022.65 1023.00 1023.33 1023.63 1023.86 1024.04 1024.26 1024.51 1024.83 1025.09 1025.28 1025.44 1025.87 1026.15 1026.40 1026.50 1026.93 1026.83 1026.66 1026.32 1026.25 1026.79 1027.12 1027.36 1027.65 1027.85 1028.03 1028.39 1028.64 1028.98 1029.24 1029.22
1016.97 1017.70 1018.11 1018.30 1018.75 1019.33 1019.94 1020.49 1020.89 1021.10 1021.39 1021.64 1021.92 1022.26 1022.44 1023.02 1023.37 1023.72 1023.93 1024.15 1024.33 1024.42 1024.88 1025.29 1025.72 1026.00 1026.24 1026.53 1026.95 1027.13 1027.18 1027.20 1026.90 1026.94 1027.55 1027.86 1027.86 1028.18 1028.72 1028.96 1029.09 1029.36 1029.39
1016.45 1016.77 1017.27 1017.61 1017.93 1018.45 1019.11 1019.47 1020.03 1020.38 1020.50 1020.78 1021.20 1021.60 1022.00 1022.30 1022.71 1023.02 1023.31 1023.61 1023.84 1024.29 1024.77 1025.32 1025.81 1026.00 1026.22 1026.39 1026.54 1027.14 1027.62 1027.71 1027.72 1027.41 1027.26 1027.49 1027.94 1028.39 1028.87 1029.40 1029.74 1029.66 1029.58
1015.69 1016.16 1016.61 1016.99 1017.17 1017.77 1018.34 1018.86 1018.86 1019.31 1019.92 1020.26 1020.70 1021.08 1021.52 1021.90 1022.30 1022.48 1022.85 1023.24 1023.85 1024.43 1024.84 1025.37 1025.84 1026.00 1026.34 1026.64 1027.00 1027.39 1027.44 1027.54 1027.68 1027.93 1028.19 1028.33 1028.41 1028.49 1028.94 1029.66 1029.87 1029.88 1029.88
Wind_Speed
8 9 8 9 10 10 11 10 10 13 15 17 16 17 16 16 16 15 16 18 19 19 19 19 20 20 21 21 21 20 19 20 20 19 19 20 19 18 19 18 16 16 18
13 12 7 9 11 11 11 11 11 10 13 16 16 16 16 14 15 15 18 18 18 18 19 19 20 20 20 19 19 19 19 18 16 14 9 18 18 19 19 18 17 14 16
12 12 12 10 11 12 11 11 11 11 11 14 16 16 15 15 16 16 17 18 15 17 19 19 19 19 19 18 18 18 17 17 15 11 6 12 14 17 17 16 17 19 18
12 12 12 9 11 10 10 11 11 12 12 14 14 15 15 16 15 15 17 17 16 16 18 18 18 18 17 17 17 16 16 15 13 9 10 11 12 16 16 16 15 16 15
12 11 12 10 10 9 10 11 13 13 14 14 14 16 16 16 14 16 16 17 15 15 16 17 17 17 17 17 17 16 15 13 7 9 12 11 11 14 16 16 14 15 15
12 12 12 11 11 11 10 13 15 14 13 13 14 15 17 15 14 11 15 17 16 15 15 16 16 16 16 16 15 15 14 10 7 11 11 12 13 15 15 15 14 14 14
12 13 13 10 11 10 9 13 15 15 13 13 14 15 15 15 13 13 13 15 15 15 15 15 14 14 14 14 14 14 13 10 10 10 10 12 13 15 15 14 13 13 12
11 12 13 9 8 9 9 9 13 15 14 12 12 13 15 14 13 14 12 14 14 14 13 14 14 14 13 13 13 13 11 10 10 11 11 11 12 14 14 13 12 11 11
10 11 11 11 10 8 9 7 8 11 12 10 13 13 14 11 12 13 12 12 13 12 12 12 12 13 12 11 10 10 9 8 10 8 8 8 10 12 12 11 11 10 10
9 9 11 10 10 10 9 8 7 8 10 11 13 12 11 11 10 10 10 11 12 11 11 11 10 10 11 10 9 7 4 0 8 7 6 6 9 9 9 8 7 6 6
8 9 10 10 9 8 9 7 8 7 9 10 10 9 7 7 8 8 10 9 11 10 10 9 9 8 7 8 7 4 5 5 5 5 5 9 9 10 9 7 5 6 6
12 12 9 10 10 10 7 8 7 6 5 6 6 6 5 6 5 7 8 9 8 8 8 7 7 4 2 3 3 2 4 5 4 5 5 8 9 10 11 10 12 12 11
13 11 8 10 10 10 8 6 4 4 4 4 6 5 5 5 4 3 4 3 4 1 3 3 3 3 5 3 3 4 4 4 4 3 6 8 10 11 11 12 13 14 15
15 13 12 9 10 9 7 6 6 5 4 4 4 5 4 4 4 4 3 3 3 2 3 2 3 3 3 3 4 4 5 4 4 3 4 8 11 12 12 12 13 14 14
13 13 14 11 10 9 7 7 7 6 6 6 6 5 3 3 3 3 3 3 2 2 2 2 2 1 2 3 3 4 5 5 5 3 3 8 10 12 13 14 14 16 16
14 13 10 13 11 9 6 6 5 5 6 6 5 5 5 3 3 3 3 3 2 1 1 1 1 1 2 3 4 5 5 5 5 5 4 6 11 13 15 16 17 16 16
14 15 15 13 11 11 11 9 6 5 6 6 5 6 6 5 5 4 3 3 3 2 2 2 1 1 2 2 3 3 4 5 4 5 4 4 6 10 15 18 18 18 18
14 15 15 13 14 12 10 8 7 6 6 6 5 5 7 6 5 5 3 4 4 3 3 2 1 2 2 2 3 4 3 3 4 5 5 5 6 6 9 16 18 19 18
15 15 15 15 15 14 12 8 8 8 7 6 6 6 9 8 7 6 4 4 5 3 2 2 2 2 3 2 4 4 2 3 4 4 6 7 8 9 7 10 11 18 18
15 15 15 14 15 14 9 8 7 7 7 7 7 7 9 7 8 6 5 5 5 4 3 3 2 3 1 3 4 4 3 4 4 4 5 6 7 9 9 9 8 10 18
16 16 17 16 16 12 10 9 8 9 9 8 8 10 8 7 9 7 5 5 7 6 5 5 2 3 2 2 4 2 3 3 4 4 4 5 8 9 10 10 8 7 7
17 18 17 17 17 14 11 10 8 9 9 10 8 8 9 10 9 8 7 6 7 5 6 5 4 2 1 1 1 2 2 4 3 4 5 5 9 7 8 10 10 11 9
20 19 18 19 18 16 16 10 8 7 5 6 6 8 9 11 11 10 9 7 7 7 6 6 6 6 4 1 1 2 3 1 2 2 4 4 8 7 6 7 9 10 10
19 18 19 19 19 17 18 14 15 12 11 10 10 8 9 14 10 10 8 9 8 7 6 5 4 5 4 4 2 2 2 3 2 2 3 3 6 7 8 6 6 8 11
17 17 17 19 19 19 17 17 13 14 10 9 9 11 10 7 8 10 8 7 5 4 4 5 5 5 4 5 3 3 1 1 1 2 1 2 2 4 5 5 6 7 11
15 15 16 19 19 19 18 19 19 18 15 11 10 9 7 6 5 9 9 7 6 5 6 5 4 5 4 3 3 4 4 3 4 3 3 2 3 2 4 4 5 8 9
Wind_Direction
149 142 170 133 123 110 106 100 93 96 100 96 91 86 79 74 71 75 81 79 77 77 77 76 74 72 70 69 69 67 65 62 62 67 67 63 60 59 55 51 54 58 49
141 149 144 130 121 113 110 104 96 98 99 99 96 88 84 78 80 75 79 79 75 82 81 78 76 73 70 68 66 65 64 64 64 58 69 82 62 62 57 48 45 57 61
143 139 144 120 123 120 122 105 104 104 96 96 95 89 87 92 90 82 83 80 85 87 86 81 77 74 71 70 69 67 62 57 53 54 30 69 66 56 55 48 45 48 55
145 144 133 121 120 121 115 119 106 104 106 100 98 101 101 98 98 93 88 89 79 81 88 82 78 76 72 69 67 63 59 56 46 28 56 64 64 56 56 52 46 44 49
146 139 123 125 124 119 110 133 113 100 99 105 111 107 104 98 98 90 91 89 84 80 86 85 81 77 71 70 65 59 58 56 41 63 56 39 51 52 51 48 48 51 48
145 141 134 131 124 115 108 129 116 113 109 109 109 105 100 98 102 85 81 88 86 84 85 84 79 76 74 73 67 62 61 51 49 60 56 61 55 50 53 51 49 46 42
152 139 142 134 127 126 119 125 126 120 117 115 106 108 107 107 101 105 93 95 91 86 85 82 78 78 79 75 68 63 59 40 61 62 61 59 56 54 52 49 50 49 47
151 148 134 129 129 134 127 111 119 124 121 120 110 103 117 107 110 104 94 90 92 89 87 83 79 77 77 73 67 60 48 6 62 59 56 57 44 51 49 47 46 43 37
151 152 138 143 134 95 94 90 91 103 117 120 104 89 82 87 96 97 93 99 97 91 86 83 79 77 76 73 70 66 57 15 66 61 57 53 31 46 46 44 40 35 28
167 155 142 143 148 144 134 82 75 86 85 78 97 89 86 85 89 90 103 89 94 91 86 80 78 76 71 64 64 55 48 61 58 63 60 39 11 39 42 41 36 27 17
160 155 156 148 143 141 140 119 113 86 78 94 100 99 133 117 117 114 74 89 93 93 92 84 80 78 87 80 62 38 292 49 48 45 46 12 2 3 6 10 356 334 319
172 165 167 161 149 146 144 152 141 136 135 121 131 132 115 115 94 96 84 76 78 81 92 85 81 112 219 62 83 204 41 32 40 37 50 5 359 357 354 350 346 343 340
174 170 173 171 162 157 153 152 155 151 143 140 141 136 122 127 136 111 124 128 110 121 123 138 111 59 53 38 45 37 30 20 21 22 53 8 358 354 351 350 346 345 348
175 182 169 180 175 169 162 171 164 162 158 159 156 153 153 152 149 146 139 130 127 102 111 82 72 62 66 58 28 22 18 3 8 3 58 20 3 2 5 6 6 7 4
183 188 187 178 181 181 189 176 172 171 177 167 169 168 171 154 149 154 133 133 119 131 116 112 98 66 40 29 16 1 2 358 357 359 358 57 22 27 31 30 25 18 12
186 191 190 196 189 178 187 211 182 175 172 177 175 173 178 173 168 162 155 149 152 160 136 140 33 13 10 360 351 356 349 349 357 5 17 71 51 43 38 36 28 22 17
191 184 187 192 190 200 194 196 195 190 187 189 184 179 181 184 181 183 180 184 175 172 199 211 218 293 311 341 341 342 340 1 12 29 53 47 83 77 48 36 34 30 27
191 189 186 185 190 198 202 205 195 190 199 196 194 190 192 190 184 192 196 196 189 196 220 233 278 281 304 331 332 348 344 24 42 71 63 58 51 39 74 41 41 34 32
192 191 190 194 193 195 198 200 202 203 205 207 204 201 197 195 192 191 210 214 198 203 195 216 215 304 313 324 345 327 357 34 100 62 79 57 62 41 30 59 66 43 39
195 195 193 195 200 197 195 200 203 202 206 208 211 210 204 197 198 211 215 209 200 206 203 200 226 210 276 315 309 325 34 106 82 74 76 66 52 30 39 38 35 65 47
199 199 200 197 199 192 193 191 204 207 203 205 215 203 200 202 203 202 217 212 198 212 220 203 207 214 211 303 304 312 122 105 70 89 81 58 41 37 39 40 39 36 42
207 205 204 203 200 198 198 198 200 200 212 208 203 199 196 204 197 200 204 206 211 207 209 193 190 178 183 313 304 293 258 151 169 74 89 61 30 39 47 47 52 46 34
214 209 207 206 205 203 206 199 203 200 201 201 197 209 210 205 199 200 202 200 202 209 211 190 195 197 183 121 112 313 247 233 317 113 92 68 24 42 50 59 62 47 30
215 213 214 209 209 207 202 201 202 204 206 213 205 196 199 202 196 206 201 202 208 203 203 177 177 198 185 168 153 80 40 334 263 183 150 76 38 52 46 51 57 43 24
210 214 213 214 212 208 204 204 203 212 215 218 216 202 196 181 192 203 198 201 176 176 164 162 173 181 185 179 189 153 142 20 315 270 262 6 35 54 63 53 46 31 18
211 211 211 215 216 213 211 211 211 213 213 210 206 199 185 172 177 194 182 172 141 142 151 150 153 151 162 154 147 171 185 187 184 177 225 279 326 18 53 56 42 28 16